Weather History for Marion, IN

Change the Weather History Date:

Friday, May 3, 2013

  Actual Average (KMIE) Record (KMIE)
Temperature  
Mean Temperature 66 °F 58 °F  
Max Temperature 74 °F 68 °F 86 °F (2012)
Min Temperature 59 °F 47 °F 29 °F (1986)
Degree Days  
Heating Degree Days 0 8  
Month to date heating degree days 26  
Since 1 July heating degree days 5618  
Cooling Degree Days 2 1  
Month to date cooling degree days 3  
Year to date cooling degree days 18  
Growing Degree Days 16 (Base 50)    
Moisture  
Dew Point 52 °F    
Average Humidity 60    
Maximum Humidity 77    
Minimum Humidity 39    
Precipitation  
Precipitation 0.00 in 0.12 in 0.71 in (2008)
Month to date precipitation 0.36  
Year to date precipitation 11.52  
Sea Level Pressure  
Sea Level Pressure 30.01 in    
Wind  
Wind Speed 9 mph (SE)    
Max Wind Speed 20 mph    
Max Gust Speed 25 mph    
Visibility 9 miles    
Events      
T = Trace of Precipitation, MM = Missing Value Source: NWS Daily Summary

Daily Weather History Graph

Daily Weather History Graph

Search for Another Location

Airport:

Trip Planner

Search our weather history database for the weather conditions in past years. The results will help you decide how hot, cold, wet, or windy it might be!

Date:

Astronomy

May. 03, 2013 Rise Set
Actual Time 6:39 AM EDT 8:40 PM EDT
Civil Twilight 6:09 AM EDT 9:10 PM EDT
Nautical Twilight 5:32 AM EDT 9:47 PM EDT
Astronomical Twilight 4:53 AM EDT 10:26 PM EDT
Moon 3:04 AM EDT (5/3) 2:33 PM EDT (5/3)
Length of Visible Light 15h 01m
Length of Day
14h 01m
Last Quarter, 37% of the Moon is Illuminated
May 3
Last Quarter
May 9
New
May 18
First Quarter
May 25
Full
May 31
Last Quarter

Hourly Weather History & Observations

Time (EDT) Temp. Dew Point Humidity Pressure Visibility Wind Dir Wind Speed Gust Speed Precip Events Conditions
12:15 AM 63.1 °F 53.6 °F 71% 30.09 in 7.0 mi ESE 4.6 mph - N/A   Mostly Cloudy
12:35 AM 62.2 °F 53.1 °F 72% 30.09 in 10.0 mi SE 5.8 mph - N/A   Clear
12:55 AM 61.7 °F 53.2 °F 74% 30.08 in 7.0 mi SE 6.9 mph - N/A   Clear
1:15 AM 61.3 °F 52.9 °F 74% 30.08 in 10.0 mi SE 5.8 mph - N/A   Scattered Clouds
1:35 AM 61.3 °F 52.7 °F 73% 30.08 in 7.0 mi SE 5.8 mph - N/A   Mostly Cloudy
1:55 AM 61.3 °F 52.7 °F 73% 30.07 in 10.0 mi SE 4.6 mph - N/A   Scattered Clouds
2:15 AM 61.7 °F 52.3 °F 71% 30.07 in 10.0 mi SE 6.9 mph - N/A   Clear
2:35 AM 61.9 °F 52.2 °F 70% 30.06 in 10.0 mi SE 6.9 mph - N/A   Clear
2:55 AM 62.1 °F 52.2 °F 70% 30.05 in 10.0 mi SE 8.1 mph - N/A   Clear
3:15 AM 61.9 °F 52.2 °F 70% 30.04 in 10.0 mi SE 6.9 mph - N/A   Clear
3:35 AM 61.9 °F 52.2 °F 70% 30.04 in 10.0 mi SE 6.9 mph - N/A   Clear
3:55 AM 61.9 °F 52.2 °F 70% 30.04 in 10.0 mi SE 6.9 mph - N/A   Clear
4:15 AM 60.6 °F 52.2 °F 74% 30.04 in 10.0 mi SE 5.8 mph - N/A   Clear
4:35 AM 60.3 °F 52.0 °F 74% 30.04 in 7.0 mi SE 5.8 mph - N/A   Scattered Clouds
4:55 AM 59.9 °F 52.0 °F 75% 30.04 in 7.0 mi SE 5.8 mph - N/A   Mostly Cloudy
5:15 AM 60.1 °F 52.0 °F 75% 30.04 in 7.0 mi SE 5.8 mph - N/A   Scattered Clouds
5:35 AM 59.7 °F 52.0 °F 76% 30.04 in 7.0 mi SE 5.8 mph - N/A   Scattered Clouds
5:55 AM 59.4 °F 52.2 °F 77% 30.04 in 7.0 mi SE 5.8 mph - N/A   Scattered Clouds
6:15 AM 59.4 °F 52.2 °F 77% 30.04 in 7.0 mi SE 6.9 mph - N/A   Scattered Clouds
6:35 AM 60.1 °F 52.0 °F 75% 30.04 in 7.0 mi SE 6.9 mph - N/A   Clear
6:55 AM 60.4 °F 52.0 °F 74% 30.04 in 10.0 mi SE 8.1 mph - N/A   Scattered Clouds
7:15 AM 60.3 °F 52.3 °F 75% 30.05 in 7.0 mi SE 6.9 mph - N/A   Mostly Cloudy
7:35 AM 60.3 °F 52.7 °F 76% 30.05 in 7.0 mi SE 6.9 mph - N/A   Overcast
7:55 AM 60.8 °F 52.7 °F 75% 30.05 in 10.0 mi SE 8.1 mph - N/A   Overcast
8:15 AM 61.0 °F 52.9 °F 75% 30.05 in 10.0 mi SE 9.2 mph - N/A   Scattered Clouds
8:35 AM 61.2 °F 53.1 °F 75% 30.05 in 10.0 mi SE 9.2 mph - N/A   Clear
8:55 AM 63.0 °F 53.6 °F 71% 30.05 in 10.0 mi SSE 11.5 mph - N/A   Clear
9:15 AM 64.6 °F 53.8 °F 68% 30.05 in 10.0 mi SSE 11.5 mph - N/A   Clear
9:35 AM 66.0 °F 54.0 °F 65% 30.05 in 7.0 mi SSE 13.8 mph - N/A   Clear
9:55 AM 67.1 °F 54.5 °F 64% 30.05 in 7.0 mi South 11.5 mph - N/A   Clear
10:15 AM 67.8 °F 55.4 °F 64% 30.04 in 10.0 mi SSE 11.5 mph - N/A   Mostly Cloudy
10:35 AM 68.7 °F 55.0 °F 62% 30.04 in 10.0 mi South 13.8 mph - N/A   Mostly Cloudy
10:55 AM 69.1 °F 55.2 °F 61% 30.04 in 10.0 mi South 12.7 mph 17.3 mph N/A   Scattered Clouds
11:15 AM 69.3 °F 55.6 °F 62% 30.04 in 10.0 mi SSE 10.4 mph - N/A   Clear
11:35 AM 69.8 °F 55.6 °F 61% 30.04 in 10.0 mi SSE 10.4 mph 17.3 mph N/A   Clear
11:55 AM 69.6 °F 55.8 °F 61% 30.04 in 10.0 mi SSE 10.4 mph - N/A   Clear
12:15 PM 69.8 °F 55.8 °F 61% 30.03 in 7.0 mi SSE 11.5 mph - N/A   Clear
12:35 PM 70.5 °F 55.8 °F 59% 30.03 in 10.0 mi SSE 9.2 mph - N/A   Scattered Clouds
12:55 PM 71.4 °F 56.5 °F 59% 30.02 in 10.0 mi SSE 9.2 mph - N/A   Mostly Cloudy
1:15 PM 72.5 °F 56.3 °F 57% 30.01 in 7.0 mi SE 10.4 mph - N/A   Scattered Clouds
1:35 PM 72.7 °F 55.9 °F 56% 30.01 in 10.0 mi SSE 10.4 mph - N/A   Scattered Clouds
1:55 PM 73.0 °F 55.4 °F 54% 30.00 in 10.0 mi South 9.2 mph - N/A   Scattered Clouds
2:15 PM 73.0 °F 55.0 °F 53% 30.00 in 7.0 mi SSE 10.4 mph - N/A   Mostly Cloudy
2:35 PM 72.7 °F 54.9 °F 53% 29.99 in 7.0 mi SE 11.5 mph - N/A   Mostly Cloudy
2:55 PM 73.4 °F 54.0 °F 50% 29.99 in 7.0 mi ESE 15.0 mph 19.6 mph N/A   Scattered Clouds
3:15 PM 73.8 °F 54.3 °F 51% 29.98 in 7.0 mi SE 11.5 mph - N/A   Mostly Cloudy
3:35 PM 73.8 °F 54.5 °F 51% 29.98 in 7.0 mi SE 17.3 mph 23.0 mph N/A   Scattered Clouds
3:55 PM 73.8 °F 53.4 °F 49% 29.97 in 7.0 mi SE 15.0 mph 19.6 mph N/A   Clear
4:15 PM 73.8 °F 52.9 °F 48% 29.96 in 7.0 mi SE 15.0 mph 21.9 mph N/A   Scattered Clouds
4:35 PM 73.6 °F 52.2 °F 47% 29.96 in 7.0 mi SE 17.3 mph 21.9 mph N/A   Scattered Clouds
4:55 PM 74.3 °F 51.8 °F 45% 29.95 in 10.0 mi SE 19.6 mph 25.3 mph N/A   Scattered Clouds
5:15 PM 74.1 °F 51.4 °F 45% 29.95 in 10.0 mi SE 15.0 mph - N/A   Scattered Clouds
5:35 PM 74.5 °F 50.9 °F 43% 29.95 in 10.0 mi SE 19.6 mph 25.3 mph N/A   Scattered Clouds
5:55 PM 73.8 °F 51.3 °F 45% 29.95 in 7.0 mi SE 12.7 mph 20.7 mph N/A   Scattered Clouds
6:15 PM 73.4 °F 50.9 °F 45% 29.95 in 7.0 mi SE 13.8 mph 21.9 mph N/A   Clear
6:35 PM 73.2 °F 51.3 °F 46% 29.94 in 10.0 mi SE 18.4 mph 24.2 mph N/A   Scattered Clouds
6:55 PM 72.9 °F 50.7 °F 46% 29.95 in 7.0 mi SE 17.3 mph 23.0 mph N/A   Mostly Cloudy
7:15 PM 72.0 °F 50.2 °F 46% 29.95 in 10.0 mi SE 16.1 mph 20.7 mph N/A   Scattered Clouds
7:35 PM 71.2 °F 50.0 °F 47% 29.95 in 7.0 mi SE 11.5 mph 19.6 mph N/A   Clear
7:55 PM 69.8 °F 51.3 °F 52% 29.95 in 7.0 mi SE 10.4 mph - N/A   Clear
8:15 PM 69.4 °F 51.4 °F 53% 29.96 in 7.0 mi SE 11.5 mph - N/A   Clear
8:35 PM 69.3 °F 51.1 °F 52% 29.96 in 10.0 mi ESE 13.8 mph - N/A   Clear
8:55 PM 68.9 °F 50.5 °F 52% 29.96 in 7.0 mi SE 9.2 mph - N/A   Clear
9:15 PM 68.4 °F 50.9 °F 54% 29.96 in 7.0 mi ESE 9.2 mph - N/A   Clear
9:35 PM 68.2 °F 50.4 °F 53% 29.96 in 7.0 mi ESE 9.2 mph - N/A   Clear
9:55 PM 68.4 °F 50.0 °F 52% 29.96 in 10.0 mi ESE 12.7 mph - N/A   Clear
10:15 PM 68.2 °F 48.9 °F 50% 29.97 in 10.0 mi SE 16.1 mph 20.7 mph N/A   Clear
10:35 PM 67.6 °F 44.8 °F 44% 29.98 in 10.0 mi SE 13.8 mph 19.6 mph N/A   Clear
10:55 PM 66.6 °F 43.0 °F 42% 29.98 in 10.0 mi SE 12.7 mph - N/A   Clear
11:15 PM 66.2 °F 41.5 °F 41% 29.98 in 10.0 mi SE 11.5 mph - N/A   Clear
11:35 PM 65.7 °F 40.5 °F 40% 29.98 in 10.0 mi SE 12.7 mph 18.4 mph N/A   Clear
11:55 PM 65.1 °F 39.7 °F 39% 29.98 in 10.0 mi SE 10.4 mph 16.1 mph N/A   Clear